Location: Schwieberdingen
(48.8766°N, 9.0770°E)
Time: 12:43:35
(UTC+00:00)

Daily predictions for brighter satellites

Satellite Brightness Start Highest point End
(mag) Time Altitude Azimuth Time Altitude Azimuth Time Altitude Azimuth
NOSS 2-1 (D) 3.5 18:06:21 10° NW 18:10:02 78° NE 18:15:03 10° SE
BREEZE-M DEB (TANK) 3.1 18:07:51 10° W 18:10:17 83° N 18:15:04 10° E
Cosmos 1725 Rocket 4.3 18:04:32 10° SSW 18:10:42 76° W 18:16:55 10° N
Meteor 1-18 Rocket 4.4 18:04:56 10° N 18:10:55 85° E 18:16:45 10° SSE
SJ-6B 2.9 18:08:07 10° SE 18:11:36 47° ENE 18:15:05 10° N
Cosmos 2333 Rocket 3.4 18:08:15 10° SW 18:13:49 48° NW 18:19:25 10° NNE
SeaSat 1 3.0 18:08:56 10° NNE 18:13:50 65° NW 18:18:41 10° SW
Iridium 4 Rocket 3.0 18:10:01 10° N 18:14:08 59° E 18:18:15 10° SSE
Meteor 1-4 Rocket 2.6 18:12:03 10° N 18:14:30 31° ENE 18:16:55 10° SE
CARTOSAT-1 4.5 18:11:04 10° SE 18:14:44 29° ENE 18:18:25 10° N
SL-16 R/B 4.4 18:10:06 10° WSW 18:14:53 27° NW 18:19:42 10° NNE
Cosmos 1151 Rocket 3.6 18:10:44 10° NNW 18:14:58 63° W 18:19:09 10° S
Cosmos 1340 2.4 18:12:18 10° SSW 18:15:33 79° W 18:18:49 10° N
ATLAS CENTAUR R/B 2.9 18:14:10 10° SE 18:15:34 12° ESE 18:17:00 10° E
Cosmos 2369 Rocket 4.2 18:15:45 10° N 18:18:43 14° NNE 18:21:40 10° ENE
ARGOS Delta rocket 4.1 18:16:40 10° SSE 18:21:31 51° ENE 18:26:09 10° N
Cosmos 1733 4.4 18:22:25 10° SE 18:24:53 19° E 18:27:21 10° NE
Cosmos 841 Rocket 4.4 18:20:55 10° SW 18:25:59 54° WNW 18:31:04 10° NNE
NOSS 0 Rocket 4.3 18:21:18 10° S 18:27:08 44° ESE 18:33:00 10° NE
Cosmos 1943 Rocket 2.6 18:22:02 10° NNW 18:27:18 43° NE 18:32:34 10° SE
USA 276 1.8 18:25:14 10° WNW 18:28:08 79° SSW 18:30:24 14° ESE
ACS3 Solar Sail 2.6 18:25:15 10° SE 18:30:53 34° ENE 18:36:32 10° N
Cosmos 1400 Rocket 2.8 18:27:24 10° NNW 18:31:14 80° WSW 18:34:59 10° S
Cosmos 2322 3.7 18:26:42 10° SSW 18:32:21 86° ESE 18:38:03 10° NNE
Cosmos 2233 Rocket 4.3 18:27:21 10° SSW 18:33:29 75° W 18:39:41 10° N
Cosmos 1066 Rocket 4.4 18:27:51 10° NNW 18:33:46 84° W 18:39:34 10° S
BlueWalker 3 2.9 18:30:40 10° WNW 18:34:11 39° SW 18:37:42 10° SSE
Cosmos 1726 2.4 18:33:23 10° SSW 18:36:06 50° WNW 18:38:51 10° N
Resurs 1-3 3.8 18:32:12 10° S 18:36:31 75° WSW 18:40:53 10° NNW
Terra 3.9 18:35:49 10° ENE 18:37:09 11° NE 18:38:30 10° NE
Cosmos 1315 Rocket 3.7 18:43:28 10° N 18:47:01 30° ENE 18:49:14 18° ESE
Meteor PRIRODA 3.9 18:46:02 10° S 18:49:17 59° WSW 18:52:33 10° NNW
Cosmos 1464 Rocket 4.2 18:43:25 10° SSE 18:49:29 51° E 18:55:37 10° NNE
Cosmos 1125 Rocket 3.6 18:45:55 10° NNW 18:51:04 57° ENE 18:55:24 14° SE
ATLAS 2AS CENTAUR R/B 4.5 18:45:01 10° WNW 18:51:06 29° NNW 18:57:01 10° NE
Cosmos 1842 3.0 18:48:34 10° N 18:52:12 85° W 18:55:49 10° S
SL-16 R/B 3.9 18:53:32 14° E 18:53:32 14° E 18:55:18 10° ENE
Cosmos 1536 2.8 18:50:32 10° S 18:54:13 51° E 18:57:57 10° NNE
USA 59 Rocket 0.9 18:50:28 10° NW 18:54:15 50° SW 18:59:27 10° SSE
Okean 3 Rocket 3.6 18:50:18 10° S 18:54:41 58° E 18:59:03 10° NNE
Cosmos 1707 2.4 18:52:28 10° N 18:56:02 87° ENE 18:59:34 10° S
COSMOS 2428 2.9 18:50:28 10° SSW 18:56:11 79° WNW 19:01:58 10° NNE
Cosmos 1515 Rocket 3.5 18:51:58 10° N 18:56:17 65° ENE 19:00:36 10° SSE
Okean O Rocket 1.9 18:57:42 17° SE 19:00:49 47° ENE 19:05:05 10° N
Feng Yun 1-1 Rocket 4.3 18:56:03 10° SSE 19:01:48 74° ENE 19:07:43 10° NNW
SL-14 R/B 4.3 19:01:34 10° NNE 19:04:46 25° ENE 19:05:27 24° E
Cosmos 2278 Rocket 2.4 19:01:24 10° NNW 19:07:04 74° WSW 19:12:39 10° SSE
USA 306 2.9 19:05:34 10° W 19:08:43 55° NNW 19:11:32 15° ENE
Meteor 1-13 Rocket 4.3 19:03:42 10° N 19:09:35 72° ENE 19:14:59 12° SSE
CZ-4 R/B 2.0 19:06:06 10° S 19:09:50 52° W 19:13:39 10° NNW
Meteor 2-9 Rocket 4.3 19:05:33 10° SSE 19:10:39 49° E 19:15:54 10° NNE
PSLV R/B 4.2 19:09:57 30° ESE 19:10:53 36° ENE 19:14:09 10° N
Cosmos 2034 Rocket 4.1 19:05:48 10° SSE 19:11:44 50° E 19:17:40 10° NNE
CZ-4B R/B 3.2 19:07:44 10° SSE 19:13:12 87° WSW 19:18:37 10° NNW
Cosmos 1500 Rocket 3.9 19:10:44 19° SSE 19:13:30 40° E 19:17:35 10° NNE
Cosmos 1072 Rocket 4.5 19:08:52 10° S 19:15:17 82° E 19:21:42 10° N
Resurs 01 Rocket 1.8 19:10:54 10° S 19:15:20 74° WSW 19:19:47 10° NNW
NOSS 3-3 (C) 4.1 19:11:23 10° S 19:16:19 39° ESE 19:22:00 10° NE
Helios 1A 3.7 19:12:21 10° N 19:16:20 54° WNW 19:20:17 10° SSW
USA 290 3.9 19:14:19 10° NW 19:17:19 33° WSW 19:20:16 10° S
Cosmos 2228 Rocket 4.5 19:13:49 10° NNE 19:17:26 22° ENE 19:17:55 22° ENE
Meteor 2-10 4.1 19:11:57 10° S 19:17:30 71° E 19:23:13 10° NNE
GEOS 3 Rocket 4.2 19:13:39 14° SSE 19:18:08 55° SW 19:23:15 10° NW
Meteor 1-23 Rocket 4.4 19:12:57 10° N 19:18:28 52° ENE 19:21:41 24° SE
Cosmos 1743 Rocket 4.1 19:19:19 32° ESE 19:20:14 35° E 19:24:12 10° NNE
USA 186 2.7 19:17:45 11° S 19:20:41 49° W 19:23:51 10° NNW
MOS 1-B 4.3 19:17:39 12° SSE 19:23:04 88° ENE 19:28:54 10° NNW
SPOT 5 3.1 19:22:14 31° ESE 19:23:51 44° ENE 19:28:04 10° N
Okean-O 2.9 19:23:04 33° ESE 19:24:36 48° ENE 19:28:51 10° N
USA 267 4.0 19:21:02 13° ENE 19:26:27 45° N 19:32:37 10° WNW
Cosmos 2208 Rocket 4.0 19:21:32 10° S 19:26:40 55° ESE 19:31:52 10° NNE
Cosmos 1408 Rocket 3.4 19:24:04 10° S 19:28:25 75° E 19:32:50 10° NNE
CZ-4B R/B 4.5 19:26:28 10° SSW 19:30:00 33° W 19:33:42 10° NNW
NOSS 3-3 (A) 3.8 19:25:14 10° SSW 19:30:24 52° ESE 19:36:26 10° NE
ISS -3.9 19:27:05 10° WSW 19:30:25 68° SSE 19:30:43 63° ESE
MOS 1 4.3 19:31:48 27° SE 19:34:54 67° ENE 19:40:33 10° N
Cosmos 2237 Rocket 2.1 19:29:32 10° SSW 19:35:10 89° SE 19:40:50 10° NNE
CSL-04 Rocket 4.0 19:31:45 10° S 19:37:04 63° WSW 19:42:21 10° NNW
Aureole 3 Rocket 3.7 19:30:46 10° S 19:37:33 67° E 19:42:23 10° NNE
Cosmos 1607 4.4 19:32:23 10° S 19:38:13 37° ESE 19:44:03 10° NE
Cosmos 2297 4.2 19:40:11 10° NNW 19:45:34 43° NE 19:47:04 36° E
IKONOS-2 4.5 19:42:03 10° NNE 19:46:13 79° WNW 19:50:21 10° SSW
Meteor 1-11 Rocket 3.8 19:40:59 10° SSW 19:46:36 76° WNW 19:52:10 10° N
MOS 1 Rocket 3.6 19:45:39 42° SE 19:47:06 59° ENE 19:52:19 10° N
Spot 2 Rocket 4.1 19:50:59 37° E 19:51:28 38° ENE 19:56:05 10° N
Cosmos 158 Rocket 3.8 19:47:09 10° SSW 19:52:01 80° WNW 19:56:55 10° NNE
ATLAS CENTAUR R/B 1.1 19:48:46 10° SW 19:52:20 75° NW 19:54:53 19° NE
NOSS 3-4 (A) 4.0 19:47:35 10° NW 19:54:08 57° NE 19:57:11 35° ESE
NOSS 3-4 (C) 4.0 19:47:43 10° NW 19:54:15 57° NE 19:57:17 35° E
Cosmos 1805 Rocket 3.4 19:52:47 35° S 19:54:33 89° WSW 19:58:55 10° N
SL-24 R/B 4.3 20:01:55 47° S 20:03:22 89° E 20:08:13 10° N
Cosmos 2369 Rocket 2.6 19:58:40 10° NNW 20:04:13 49° NE 20:05:11 44° E
Cosmos 1980 4.4 19:59:17 10° SW 20:04:50 55° WNW 20:10:27 10° NNE
Cosmos 1862 Rocket 4.1 20:02:49 10° N 20:06:32 46° NE 20:06:32 46° NE
Meteor 1-21 4.2 20:02:51 10° NNW 20:08:39 87° E 20:10:23 48° SSE
Sich 1 3.5 20:07:33 26° SSW 20:09:47 59° WNW 20:14:04 10° N
Cosmos 1943 Rocket 3.4 20:05:58 10° NW 20:10:57 35° WSW 20:14:05 20° SSW
Cosmos 1707 Rocket 3.8 20:07:08 10° N 20:11:05 58° NE 20:11:05 58° NE
DELTA 2 DEB (DPAF) 3.9 20:07:41 10° NNE 20:11:47 85° NNW 20:11:47 85° NNW
Terra 1.7 20:13:52 68° ENE 20:13:52 68° ENE 20:18:32 10° N
ERS-1 Rocket 2.8 20:14:03 70° SE 20:14:36 80° ENE 20:19:40 10° NNW
ACS3 Solar Sail 2.6 20:09:36 16° S 20:14:41 52° W 20:20:57 10° NNW
Cosmos 2298 Rocket 4.4 20:09:39 10° NNW 20:14:51 58° WSW 20:16:27 41° SSW
Cosmos 2150 Rocket 4.4 20:11:30 10° NNW 20:16:32 56° WSW 20:17:56 42° SSW
Cosmos 1975 3.4 20:18:58 49° N 20:18:58 49° N 20:21:56 10° N
Cosmos 1805 4.4 20:21:37 36° W 20:22:08 38° WNW 20:25:36 10° N
Cosmos 2026 Rocket 4.2 20:16:55 10° NNW 20:23:06 65° W 20:25:51 34° SSW
Cosmos 1092 Rocket 4.3 20:17:18 10° NNW 20:23:36 67° W 20:26:28 34° SSW
Ariane Rocket 3.1 20:24:21 59° ENE 20:24:21 59° ENE 20:29:08 10° N
Cosmos 2266 Rocket 4.5 20:19:05 10° N 20:25:01 43° ENE 20:25:07 43° ENE
IRS-1A Rocket 4.4 20:26:28 53° S 20:27:52 75° WSW 20:33:35 10° NNW
Okean 3 4.2 20:29:45 10° N 20:32:44 46° N 20:32:44 46° N
SL-16 R/B 2.0 20:35:16 80° S 20:35:33 84° ESE 20:41:16 10° NNE
Okean O Rocket 3.8 20:35:02 15° SW 20:37:18 21° W 20:40:43 10° NW
Cosmos 1634 Rocket 4.1 20:36:32 35° SSW 20:39:22 73° W 20:45:44 10° N
Cosmos 1656 Rocket 3.6 20:35:24 10° NNW 20:41:03 74° WSW 20:41:19 72° SW
ATLAS 2AS CENTAUR R/B 4.5 20:38:41 10° NW 20:44:16 24° N 20:49:08 12° ENE
IRS-1C Rocket 4.4 20:45:02 55° SW 20:45:32 58° WSW 20:50:45 10° NNW
Cosmos 773 Rocket 4.5 20:45:39 33° SW 20:47:55 59° WNW 20:53:10 10° NNE
Okean 1-7 4.3 20:46:05 10° N 20:48:39 35° N 20:48:39 35° N
Cosmos 2263 4.2 20:46:32 10° NNW 20:51:55 74° NNE 20:51:55 74° NNE
Cosmos 2228 Rocket 4.1 20:51:26 10° NNW 20:55:20 44° WNW 20:55:20 44° WNW
SPOT 3 Rocket 3.8 21:00:55 64° NW 21:00:55 64° NW 21:05:25 10° NNW
Cosmos 2142 Rocket 4.4 21:02:36 83° W 21:02:38 83° W 21:08:49 10° N
USA 267 3.2 21:08:22 66° ENE 21:09:00 71° NNE 21:15:30 10° NW
Cosmos 1655 Rocket 4.3 21:05:03 10° N 21:10:37 57° NE 21:10:37 57° NE
Cosmos 1607 4.5 21:18:55 10° WSW 21:25:16 57° NW 21:31:38 10° NE
ATLAS CENTAUR R/B 4.1 21:28:05 10° WNW 21:35:08 - NNE 21:29:51 15° NW
NOSS 3-4 (A) 4.5 21:38:31 10° NW 21:44:37 45° WSW 21:44:37 45° WSW
NOSS 3-4 (C) 4.5 21:38:38 10° NW 21:44:43 45° WSW 21:44:43 45° WSW
Cosmos 2369 Rocket 3.6 21:43:01 10° NW 21:46:58 30° W 21:46:58 30° W
Terra 4.2 21:52:34 16° W 21:52:34 16° W 21:54:53 10° NW
Cosmos 1980 Rocket 4.4 22:06:28 10° N 22:09:51 16° NE 22:10:31 16° NE
SL-16 R/B 4.3 22:17:00 14° W 22:20:24 23° NW 22:24:51 10° N
ATLAS 2AS CENTAUR R/B 3.5 22:30:21 10° NW 22:36:31 44° NNE 22:36:31 44° NNE
Cosmos 1697 Rocket 4.3 22:49:15 10° NNW 22:52:29 31° N 22:52:29 31° N
Cosmos 2344 4.1 23:20:23 10° NW 23:27:14 62° W 23:27:14 62° W
